(9) Metis
ephemeris date magn radius delta ra dec elong phase
Today12 Jul 202610.32.464 AU1.715 AU23h05m-14°12'127.0°19.2°
Opposition28 Aug 20269.22.401 AU1.399 AU22h41m-18°35'170.4°4.0°
(9) Metis - 2026-07-12
astro.vanbuitenen.nl


 
-1 year
-1 month
-1 day
Now
+1 day
+1 month
+1 year

The interactive orbit chart above shows the body's path through the solar system and its position at the given date. Green and blue lines are shown perpendicular to the ecliptic plane: Green if the path is above the ecliptic plane, blue if it is below. (Left-click and drag to rotate the view; Right-click and drag to move the view; Use scroll wheel to zoom in our out.)

The orbital elements of Metis are:

            e (Eccentricity)                : 0.1224892
            a (Semimajor axis)              : 2.3865669
            i (Inclination)                 : 5.57731
            Ω (Longitude of ascending node) : 68.86581
            ω (Argument of perihelion)      : 5.93234
            M (Mean anomaly)                : 252.61680
            Epoch                           : 2026 Jun 09

            L (Longitude of perihelion)     : 74.77026
            B (Latitude of perihelion)      : 0.57554
            P (Orbital period in years)     : 3.69            
        

The light curve chart below shows the estimated development of the minor planet's magnitude.


The all-sky chart below shows the path of the minor planet over the same period as the light curve. The current position is marked yellow.





The following chart shows the path of the minor planet in the next few days. The field of view is optimized for (~10x50) binoculars and finderscopes.




Ephemerides:
Date       Time       RA (2000)    DEC (2000)    delta   radius  elong  phase   PA    magn
2026-07-12 00:00 UT   23 05 28.8   -14 12 08     1.715    2.464  127.0   19.2   253   10.3 
2026-07-12 09:16 UT   23 05 31.5   -14 13 15     1.710    2.463  127.3   19.2   253   10.3 
2026-07-13 00:00 UT   23 05 35.2   -14 15 06     1.704    2.463  127.9   19.0   253   10.3 
2026-07-14 00:00 UT   23 05 39.9   -14 18 13     1.693    2.461  128.9   18.8   253   10.2 
2026-07-15 00:00 UT   23 05 43.0   -14 21 31     1.682    2.460  129.8   18.5   254   10.2 
2026-07-16 00:00 UT   23 05 44.4   -14 24 58     1.672    2.459  130.7   18.3   254   10.2 
2026-07-17 00:00 UT   23 05 44.2   -14 28 35     1.661    2.457  131.7   18.0   254   10.2 
2026-07-18 00:00 UT   23 05 42.4   -14 32 21     1.651    2.456  132.7   17.7   255   10.1 
2026-07-19 00:00 UT   23 05 38.9   -14 36 17     1.641    2.455  133.6   17.4   255   10.1 
2026-07-20 00:00 UT   23 05 33.8   -14 40 22     1.631    2.454  134.6   17.1   255   10.1 
2026-07-21 00:00 UT   23 05 26.9   -14 44 36     1.621    2.452  135.6   16.9   255   10.1 
2026-07-22 00:00 UT   23 05 18.4   -14 48 58     1.612    2.451  136.6   16.6   256   10.0 
2026-07-23 00:00 UT   23 05 08.2   -14 53 30     1.602    2.450  137.6   16.3   256   10.0 
2026-07-24 00:00 UT   23 04 56.4   -14 58 10     1.593    2.448  138.6   15.9   257   10.0 
2026-07-25 00:00 UT   23 04 42.9   -15 02 59     1.584    2.447  139.6   15.6   257   10.0 
2026-07-26 00:00 UT   23 04 27.7   -15 07 56     1.575    2.446  140.6   15.3   257   10.0 
2026-07-27 00:00 UT   23 04 10.8   -15 13 01     1.566    2.444  141.6   15.0   258    9.9 
2026-07-28 00:00 UT   23 03 52.2   -15 18 14     1.557    2.443  142.6   14.6   258    9.9 
2026-07-29 00:00 UT   23 03 32.0   -15 23 34     1.549    2.442  143.6   14.3   259    9.9 
2026-07-30 00:00 UT   23 03 10.1   -15 29 02     1.541    2.441  144.6   13.9   259    9.9 
2026-07-31 00:00 UT   23 02 46.6   -15 34 36     1.533    2.439  145.7   13.6   260    9.8 
2026-08-01 00:00 UT   23 02 21.4   -15 40 18     1.525    2.438  146.7   13.2   261    9.8 
2026-08-02 00:00 UT   23 01 54.6   -15 46 06     1.517    2.437  147.8   12.8   261    9.8 
2026-08-03 00:00 UT   23 01 26.1   -15 52 01     1.510    2.435  148.8   12.5   262    9.8 
2026-08-04 00:00 UT   23 00 56.1   -15 58 01     1.503    2.434  149.8   12.1   263    9.7 
2026-08-05 00:00 UT   23 00 24.4   -16 04 07     1.496    2.433  150.9   11.7   264    9.7 
2026-08-06 00:00 UT   22 59 51.2   -16 10 18     1.489    2.431  151.9   11.3   264    9.7 
2026-08-07 00:00 UT   22 59 16.4   -16 16 34     1.482    2.430  153.0   10.9   265    9.6 
2026-08-08 00:00 UT   22 58 40.1   -16 22 54     1.476    2.429  154.0   10.5   266    9.6 
2026-08-09 00:00 UT   22 58 02.3   -16 29 18     1.470    2.427  155.1   10.1   267    9.6 
2026-08-10 00:00 UT   22 57 23.0   -16 35 46     1.464    2.426  156.1    9.7   269    9.6 
2026-08-11 00:00 UT   22 56 42.3   -16 42 17     1.458    2.425  157.2    9.3   270    9.5 


    Terminology:
            
    delta:  distance between minor planet and earth in AU
    radius: distance between minor planet and sun in AU
    magn:   magnitude (brightness) estimate    
    ra:     right ascension in hours (24h = 360deg)
    dec:    declination in degrees
    elong:  elongation in degrees (angle sun-earth-minor planet)    
    phase:  phase angle in degrees (angle sun-minor planet-earth)        
    AU:     Astronomical Unit (mean distance between earth and sun: 149597870.7 km
    

Orbital elements provided by the MPC (Minor Planet Center).
Calculations by a modified version of AAPlus, a C# implementation of the AA+ project by PJ Naughter from the algorithms presented in the book "Astronomical Algorithms" by Jean Meeus.
NGC2000 dso catalog and star labels from VizieR as provided by the Strasbourg astronomical Data Center.
Tycho2 catalog from the ESO archive.